ATLAS CENTAUR 2 1 00694U 63047A 26237.25602609 .00001658 00000+0 19088-3 0 9997 2 00694 30.3544 333.1013 0545326 126.6665 238.5329 14.12628608155473 THOR AGENA D R/B 1 00733U 64002A 26237.02057013 .00000118 00000+0 59233-4 0 9998 2 00733 99.1153 259.4643 0033696 127.3578 233.0683 14.34088556262421 SL-3 R/B 1 00877U 64053B 26237.17121987 .00000079 00000+0 39604-4 0 9997 2 00877 65.0760 197.2390 0078331 239.3428 119.9935 14.61455525291414 SL-8 R/B 1 02802U 67045B 26237.14616086 .00000182 00000+0 57976-4 0 9994 2 02802 74.0111 33.4550 0064243 359.3552 0.7512 14.45711189113369 SL-8 R/B 1 03230U 68040B 26237.22977806 .00001917 00000+0 14061-3 0 9999 2 03230 74.0328 329.0532 0022810 103.9249 256.4480 15.04127916115348 OAO 2 1 03597U 68110A 26237.17742883 .00000144 00000+0 43871-4 0 9995 2 03597 34.9941 44.4547 0004767 111.1308 248.9893 14.47373746 43526 ISIS 1 1 03669U 69009A 26237.14641652 .00000154 00000+0 92996-4 0 9995 2 03669 88.4436 136.8319 1707556 109.0021 270.3269 11.30443351367565 SERT 2 1 04327U 70009A 26237.27107725 -.00000013 00000+0 38717-4 0 9997 2 04327 99.2849 171.2786 0005830 93.1550 62.7542 13.58743940802785 SL-3 R/B 1 05118U 71028B 26237.26251989 .00071190 00000+0 44048-3 0 9995 2 05118 81.2287 201.4557 0012671 54.8166 305.4280 15.76713942 15100 ASTEX 1 1 05560U 71089A 26236.62697387 .00000390 00000+0 99152-4 0 9999 2 05560 92.7059 205.9116 0013485 232.1786 127.8200 14.50897589886653 SL-8 R/B 1 05730U 71119B 26237.08316722 .00004318 00000+0 22266-3 0 9999 2 05730 73.8832 220.2592 0539738 152.2500 210.8608 14.40162737679710 OAO 3 (COPERNICUS) 1 06153U 72065A 26236.81637102 .00000221 00000+0 49561-4 0 9995 2 06153 35.0060 59.3473 0005820 96.8273 280.7857 14.60091909870788 ATLAS CENTAUR R/B 1 06155U 72065B 26236.77682213 .00000729 00000+0 10185-3 0 9997 2 06155 35.0024 40.3994 0033792 344.1907 15.7737 14.78017074866148 SL-8 R/B 1 08459U 75112B 26237.24958428 .00000195 00000+0 72533-4 0 9992 2 08459 74.0589 68.8178 0014810 119.2699 240.9938 14.38270769656100 SL-3 R/B 1 10114U 77057B 26237.23084250 .00010417 00000+0 19312-3 0 9998 2 10114 97.5866 57.2008 0007679 42.1263 318.0576 15.49148655694398 SEASAT 1 1 10967U 78064A 26237.19939530 .00000128 00000+0 74183-4 0 9994 2 10967 108.0115 119.1591 0001640 302.6503 57.4484 14.46277707530878 SL-14 R/B 1 11267U 79011B 26237.18430946 .00000357 00000+0 32563-4 0 9997 2 11267 82.5240 296.6819 0015151 209.5465 150.4900 14.92066233553902 SL-8 R/B 1 11574U 79089B 26237.14496059 .00000155 00000+0 54785-4 0 9992 2 11574 74.0695 139.2054 0016859 268.0707 91.8519 14.42430045460396 SL-14 R/B 1 11672U 80005B 26237.17427892 .00000425 00000+0 40277-4 0 9994 2 11672 82.5169 147.4080 0014779 326.7095 33.3193 14.91082280501591 SL-8 R/B 1 12139U 81003B 26237.15493195 .00017169 00000+0 40640-3 0 9995 2 12139 82.9381 133.5924 0240988 310.4070 47.6352 15.16714738340166 SL-3 R/B 1 12465U 81046B 26237.23459199 .00010320 00000+0 21316-3 0 9990 2 12465 81.2278 86.8013 0017765 147.0101 213.2256 15.45515178464438 SL-3 R/B 1 12904U 81103B 26237.32361980 .00004530 00000+0 19251-3 0 9993 2 12904 81.1593 15.3669 0013714 78.6982 281.5790 15.22760701998886 SL-3 R/B 1 13068U 82013B 26237.20815895 .00002893 00000+0 12055-3 0 9997 2 13068 81.1764 323.0206 0021065 332.9918 27.0216 15.23193526429990 SL-3 R/B 1 13154U 82039B 26237.18350390 .00001975 00000+0 11606-3 0 9993 2 13154 81.1512 21.3796 0030805 122.9808 237.4385 15.10842541407079 SL-3 R/B 1 13403U 82079B 26237.29101790 .00004348 00000+0 16527-3 0 9998 2 13403 81.1485 353.7082 0022852 315.7019 44.2386 15.26326640403406 SL-14 R/B 1 13553U 82092B 26237.05720604 .00000353 00000+0 36693-4 0 9993 2 13553 82.5713 343.8574 0021866 101.8274 70.7592 14.86790863353941 SL-3 R/B 1 13819U 83010B 26237.19672099 .00014525 00000+0 24968-3 0 9995 2 13819 81.1033 154.8707 0014626 167.4552 192.7062 15.50864015384020 SL-3 R/B 1 14208U 83075B 26237.28549485 .00009909 00000+0 23551-3 0 9998 2 14208 97.6121 248.6795 0019490 350.6272 9.4608 15.41684858356104 COSMOS 1536 1 14699U 84013A 26237.17169664 .00005018 00000+0 19481-3 0 9994 2 14699 82.5450 300.1090 0015012 54.7638 305.5003 15.25744853298290 SL-14 R/B 1 14820U 84027B 26237.09637149 .00000316 00000+0 33131-4 0 9999 2 14820 82.5385 87.0899 0019039 132.4097 227.8735 14.86099451272649 SL-8 R/B 1 15483U 85006B 26236.63846734 .00000120 00000+0 48309-4 0 9990 2 15483 74.0470 312.0972 0018399 188.8920 338.2438 14.37859674178163 SL-12 R/B(2) 1 15772U 85042D 26237.03877078 .00000008 00000+0 25159-4 0 9994 2 15772 71.1067 92.0500 0036625 226.0415 243.9989 14.22017700138329 SL-14 R/B 1 15945U 85069B 26237.23141453 .00000379 00000+0 39965-4 0 9999 2 15945 82.5244 226.4242 0018665 359.0705 1.0473 14.86556937197879 SL-16 R/B 1 16182U 85097B 26237.20266613 -.00000242 00000+0 -97230-4 0 9997 2 16182 71.0032 145.7809 0007949 342.7436 169.4228 14.16618188111093 SL-14 R/B 1 16496U 86006B 26236.89199797 .00000478 00000+0 47501-4 0 9993 2 16496 82.5250 101.4601 0077794 75.2188 285.7632 14.86997637174205 COSMOS 1743 1 16719U 86034A 26237.09823939 .00054089 00000+0 38550-3 0 9997 2 16719 82.5211 255.0936 0003941 72.6766 287.4929 15.73600362206604 SL-14 R/B 1 16792U 86046B 26237.18694771 .00000304 00000+0 32101-4 0 9999 2 16792 82.4801 280.9827 0023886 34.4597 325.8162 14.85713605151425 SL-14 R/B 1 16882U 86055B 26237.23846829 .00000347 00000+0 36948-4 0 9998 2 16882 82.5235 328.2159 0020043 131.5141 259.0397 14.85765581144393 AJISAI (EGS) 1 16908U 86061A 26237.28521738 -.00000069 00000+0 20366-3 0 9996 2 16908 50.0098 294.9243 0011197 356.6119 97.6335 12.44517055488996 SL-14 R/B 1 17567U 87024B 26237.22645764 .00000306 00000+0 31938-4 0 9999 2 17567 82.5280 294.3665 0019618 64.8504 295.4745 14.86255919113168 COSMOS 1833 1 17589U 87027A 26237.26918225 -.00000279 00000+0 -12300-3 0 9997 2 17589 70.9224 331.6719 0026982 307.3697 52.4967 14.13060162 34136 SL-16 R/B 1 17590U 87027B 26237.17670078 .00000099 00000+0 72869-4 0 9995 2 17590 71.0017 281.4487 0006855 238.3867 121.6589 14.17178252 39210 SL-14 R/B 1 17912U 87038B 26237.17350690 .00000317 00000+0 33893-4 0 9997 2 17912 82.5030 138.0999 0018498 332.0447 27.9774 14.85486368104242 COSMOS 1844 1 17973U 87041A 26236.41637490 .00000230 00000+0 14423-3 0 9991 2 17973 70.8993 40.3854 0029339 133.3146 227.0429 14.14582208 27309 SL-14 R/B 1 18153U 87055B 26237.25540599 .00000333 00000+0 35407-4 0 9993 2 18153 82.5006 190.1160 0020729 171.7374 188.4189 14.85748272 94964 COSMOS 1867 1 18187U 87060A 26237.29538683 -.00000053 00000+0 17573-4 0 9995 2 18187 65.0097 194.5145 0018097 281.4009 78.5043 14.31522114 44078 SL-14 R/B 1 18749U 88001B 26236.72335814 .00000345 00000+0 36849-4 0 9993 2 18749 82.5119 37.2763 0019104 46.1510 314.1281 14.85648202 66975 COSMOS 1933 1 18958U 88020A 26237.07790660 .00002451 00000+0 11538-3 0 9996 2 18958 82.5097 84.1882 0003749 358.0964 2.0255 15.19096966 75786 SL-3 R/B 1 19046U 88032B 26237.18564783 .00004135 00000+0 18642-3 0 9999 2 19046 97.5321 220.2034 0025512 10.3494 349.8262 15.21314900 77710 SL-16 R/B 1 19120U 88039B 26237.24405398 -.00000027 00000+0 98411-5 0 9993 2 19120 71.0132 72.1364 0019659 80.2152 280.1192 14.19635098982301 COSMOS 1953 1 19210U 88050A 26237.26056294 .00007715 00000+0 25774-3 0 9995 2 19210 82.5105 348.3315 0009285 243.0514 116.9779 15.30812950 63559 SL-8 R/B 1 19257U 88053B 26237.26752906 .00000130 00000+0 50695-4 0 9997 2 19257 74.0482 161.7175 0021110 298.6742 217.0140 14.38988185 732 COSMOS 1975 1 19573U 88093A 26237.23031208 .00006479 00000+0 22103-3 0 9998 2 19573 82.5206 308.2184 0009442 297.5132 62.5148 15.30108580 45167 SL-14 R/B 1 19574U 88093B 26237.29410632 .00000322 00000+0 34095-4 0 9992 2 19574 82.5277 243.7605 0020148 195.8657 174.7117 14.85779273 26056 SL-16 R/B 1 19650U 88102B 26237.15613704 .00000003 00000+0 25710-4 0 9998 2 19650 71.0004 157.0203 0012132 118.2282 242.0067 14.16172990950742 INTERCOSMOS 24 1 20261U 89080A 26236.79317133 .00000395 00000+0 11698-3 0 9993 2 20261 82.6118 354.9839 1185976 262.6335 83.8772 12.59709138687960 SL-14 R/B 1 20262U 89080C 26236.96848545 .00000373 00000+0 10549-3 0 9999 2 20262 82.5883 65.1034 1229817 160.0573 205.3309 12.50591621681187 DELTA 1 R/B 1 20323U 89089B 26237.25970682 .00000186 00000+0 54772-4 0 9996 2 20323 97.0652 57.7731 0067884 310.6681 48.8628 14.50765900920171 ARIANE 40 R/B 1 20443U 90005H 26237.18485784 .00000157 00000+0 63220-4 0 9991 2 20443 98.2904 292.6357 0011160 61.8578 298.3737 14.39956063917052 DELTA 2 R/B(1) 1 20453U 90008B 26237.06980913 .00185991 13243-4 75512-3 0 9990 2 20453 35.5949 130.2579 0038824 43.1827 317.1952 15.83976594952571 COSMOS 2058 1 20465U 90010A 26237.08609698 .00003194 00000+0 18247-3 0 9994 2 20465 82.4647 241.3868 0011350 111.2658 248.9786 15.12332975967684 SL-14 R/B 1 20466U 90010B 26237.16134290 .00000287 00000+0 31735-4 0 9993 2 20466 82.5010 109.1719 0021260 103.4633 256.8953 14.83682984953463 SL-14 R/B 1 20511U 90018B 26237.00374364 .00000285 00000+0 32706-4 0 9990 2 20511 82.5180 65.7708 0014666 257.1004 102.8573 14.82252921947518 HST 1 20580U 90037B 26237.29946119 .00006055 00000+0 18616-3 0 9995 2 20580 28.4736 327.9629 0001884 178.3948 181.6654 15.31452116799179 SL-16 R/B 1 20625U 90046B 26237.22547307 .00000319 00000+0 18897-3 0 9992 2 20625 70.9998 303.9527 0012706 42.0630 318.1465 14.15029586872230 COSMOS 2084 1 20663U 90055A 26237.10545299 .00001610 00000+0 12253-3 0 9994 2 20663 62.7885 120.8175 0013794 342.1883 17.8732 15.06355491961689 SL-6 R/B(2) 1 20666U 90055D 26236.85849602 .00001302 00000+0 10541-3 0 9999 2 20666 62.7817 41.6499 0051296 14.2486 346.0046 15.04224352963485 SL-8 R/B 1 20775U 90078B 26237.06764139 .00015439 00000+0 42738-3 0 9999 2 20775 82.8994 99.2799 0342621 164.5059 196.6981 14.94332674834408 SL-8 R/B 1 21088U 91006B 26237.23514911 .00000152 00000+0 13715-3 0 9998 2 21088 82.9403 44.6474 0021108 283.7624 249.4704 13.77518244787273 OKEAN-3 1 21397U 91039A 26237.26395611 .00001951 00000+0 13303-3 0 9995 2 21397 82.5189 173.3875 0015880 113.4575 246.8324 15.05595245890398 COSMOS 2151 1 21422U 91042A 26237.21211315 .00001207 00000+0 93382-4 0 9991 2 21422 82.4947 281.0665 0011613 202.2349 157.8373 15.00599693888464 SL-14 R/B 1 21423U 91042B 26237.02502113 .00000279 00000+0 32197-4 0 9995 2 21423 82.4898 62.3266 0018183 51.3236 308.9601 14.81936396878009 ERS-1 1 21574U 91050A 26237.32401875 .00000254 00000+0 95456-4 0 9997 2 21574 98.7793 259.7086 0032944 62.9585 297.4958 14.39554360839990 ARIANE 40 R/B 1 21610U 91050F 26237.11342835 .00000204 00000+0 73410-4 0 9996 2 21610 98.1826 282.8281 0001811 289.9538 70.1458 14.42991414843281 INTERCOSMOS 25 1 21819U 91086A 26237.19889091 .00000814 00000+0 15183-3 0 9993 2 21819 82.6031 208.0559 1485702 113.5144 262.8855 12.12293208517108 SL-8 R/B 1 21876U 92008B 26237.21625399 .00000055 00000+0 40787-4 0 9999 2 21876 82.9294 142.4740 0035485 25.9418 84.5448 13.75989360732596 SL-8 R/B 1 21938U 92020B 26236.88409990 .00000138 00000+0 12690-3 0 9994 2 21938 82.9304 28.8139 0028956 185.6274 328.6348 13.75556774724259 USA 81 1 21949U 92023A 26236.38431739 .00000141 00000+0 44674-4 0 9992 2 21949 85.0065 34.6274 0001548 114.5419 245.5935 14.32413087118792 COSMOS 2219 1 22219U 92076A 26237.15942995 .00000258 00000+0 16016-3 0 9995 2 22219 71.0617 25.8810 0019779 299.8049 60.1106 14.14111546742193 SL-16 R/B 1 22220U 92076B 26237.30733105 .00000218 00000+0 13264-3 0 9993 2 22220 70.9994 193.1745 0013660 206.8177 315.9732 14.16879124745712 COSMOS 2221 1 22236U 92080A 26237.13746104 .00001244 00000+0 10651-3 0 9996 2 22236 82.5034 117.7039 0014077 352.7195 7.3820 14.96702742805980 SL-16 R/B 1 22285U 92093B 26236.79163790 -.00000134 00000+0 -44014-4 0 9999 2 22285 71.0230 11.3653 0002942 22.3639 337.7612 14.15467278736948 COSMOS 2228 1 22286U 92094A 26237.23744564 .00001506 00000+0 12559-3 0 9995 2 22286 82.5145 75.8843 0019277 93.7100 266.6327 14.97774948801289 SL-16 R/B 1 22566U 93016B 26237.20305580 .00000260 00000+0 15804-3 0 9991 2 22566 71.0057 221.2484 0008320 60.6150 299.5802 14.15318420726017 COSMOS 2242 1 22626U 93024A 26237.02816147 .00001225 00000+0 10364-3 0 9991 2 22626 82.5171 105.6752 0017662 97.5638 262.7592 14.97082096805574 SL-16 R/B 1 22803U 93059B 26236.81148334 -.00000182 00000+0 -65984-4 0 9990 2 22803 70.9917 16.5812 0018842 309.3106 50.6347 14.17254242703353 ARIANE 40 R/B 1 22830U 93061H 26237.19511941 .00000137 00000+0 65807-4 0 9995 2 22830 98.4766 302.6005 0011538 140.8133 219.3889 14.32931271718235 COSMOS 2278 1 23087U 94023A 26237.27220847 -.00000250 00000+0 -10575-3 0 9999 2 23087 71.0530 182.3805 0007149 143.4092 216.7520 14.14400916668642 SL-16 R/B 1 23088U 94023B 26237.03106548 .00000220 00000+0 13810-3 0 9995 2 23088 70.9979 77.3521 0002437 3.7394 356.3746 14.15028592669902 SL-16 R/B 1 23343U 94074B 26237.32488198 .00000336 00000+0 51457-4 0 9999 2 23343 97.6978 261.1588 0007493 42.0526 334.3197 14.79552411712184 SL-16 R/B 1 23405U 94077B 26237.30039377 .00000275 00000+0 16489-3 0 9997 2 23405 70.9851 357.7553 0004716 269.4199 90.6384 14.15580346640095 ARIANE 40+ R/B 1 23561U 95021B 26237.18999795 .00000179 00000+0 70853-4 0 9994 2 23561 98.4362 306.2512 0006667 7.8636 7.8655 14.39864606643499 SL-16 R/B 1 23705U 95058B 26237.24480724 .00000176 00000+0 11404-3 0 9991 2 23705 71.0214 186.3676 0014156 229.2900 130.6995 14.15516934591706 SL-16 R/B 1 24298U 96051B 26237.29233610 .00000121 00000+0 92128-4 0 9991 2 24298 70.7677 178.4098 0019336 246.9843 112.9238 14.12471940545458 ORBVIEW 2 (SEASTAR) 1 24883U 97037A 26237.09112390 .00000181 00000+0 79128-4 0 9996 2 24883 98.8759 46.0488 0001156 297.6988 62.4080 14.35582881532639 SL-16 R/B 1 25400U 98043G 26237.12185719 .00000017 00000+0 26101-4 0 9990 2 25400 98.8424 191.8933 0008809 243.8748 116.1526 14.26078060462999 SL-16 R/B 1 25407U 98045B 26237.17302747 .00000116 00000+0 82635-4 0 9990 2 25407 71.0112 187.2488 0005789 142.0615 218.0917 14.16212025450953 ISS (ZARYA) 1 25544U 98067A 26237.20913067 .00007851 00000+0 14728-3 0 9993 2 25544 51.6330 318.4690 0007681 81.0568 279.1290 15.49618182582450 CZ-4B R/B 1 25732U 99025C 26237.12513789 .00000022 00000+0 31286-4 0 9997 2 25732 98.6441 277.2132 0036407 218.8409 160.5840 14.18292806412045 OKEAN-O 1 25860U 99039A 26237.14984401 .00000470 00000+0 68172-4 0 9990 2 25860 97.9258 295.1361 0001787 107.8275 252.3132 14.80534615459310 SL-16 R/B 1 25861U 99039B 26237.17529641 .00000394 00000+0 56429-4 0 9992 2 25861 97.9779 295.8206 0016089 72.5061 287.7909 14.81904179461815 DELTA 2 R/B 1 25876U 99041E 26237.25382065 .00001338 00000+0 25353-3 0 9997 2 25876 51.7630 347.8023 0501190 125.9576 238.8926 14.12212559386849 HELIOS 1B 1 25977U 99064A 26237.16820382 .00001135 00000+0 12956-3 0 9993 2 25977 98.1532 144.2837 0000796 133.3431 226.7852 14.88159514710319 TERRA 1 25994U 99068A 26237.25463350 .00000297 00000+0 69275-4 0 9999 2 25994 97.9403 284.0437 0002864 41.4690 33.1537 14.61148785419691 SL-16 R/B 1 26070U 00006B 26237.09069022 .00000239 00000+0 14576-3 0 9998 2 26070 71.0015 103.7457 0018654 283.5322 76.3722 14.15845503372394 TITAN 4B R/B 1 26474U 00047B 26237.19692773 .00002214 00000+0 13943-3 0 9999 2 26474 67.9883 286.2754 0043665 217.3248 142.4866 15.10524136418351 ENVISAT 1 27386U 02009A 26237.31108272 .00000060 00000+0 33413-4 0 9994 2 27386 98.3885 187.1046 0001159 86.5517 73.7403 14.39078372283421 IDEFIX & ARIANE 42P R/B 1 27422U 02021B 26237.27698668 .00000162 00000+0 78093-4 0 9993 2 27422 98.5955 174.0161 0012879 54.3032 305.9348 14.31108793268133 AQUA 1 27424U 02022A 26237.17636220 .00000632 00000+0 13534-3 0 9991 2 27424 98.4351 207.8624 0001815 83.8302 6.9569 14.62177426293356 CZ-4B R/B 1 27432U 02024C 26237.12537024 .00000020 00000+0 33595-4 0 9990 2 27432 98.8645 289.4793 0049069 264.3048 114.5454 14.14572762253055 MIDORI II (ADEOS-II) 1 27597U 02056A 26237.15885089 .00000189 00000+0 92172-4 0 9999 2 27597 98.7943 197.0265 0000649 141.5007 218.6221 14.29380100234367 H-2A R/B 1 27601U 02056E 26237.15723711 .00000230 00000+0 94880-4 0 9993 2 27601 98.3373 191.3363 0070713 20.7466 350.1484 14.33852517238254 CZ-4B R/B 1 28059U 03049C 26236.71931824 .00000291 00000+0 77988-4 0 9998 2 28059 98.6943 238.3083 0049283 79.2204 281.4535 14.55138209211035 CZ-2C R/B 1 28222U 04012C 26237.22492147 .00348371 54198-4 64804-3 0 9996 2 28222 97.7030 321.8916 0002422 314.6506 45.4574 16.01070464230855 SL-16 R/B 1 28353U 04021B 26237.17603117 .00000233 00000+0 14579-3 0 9990 2 28353 70.9987 238.9035 0004076 168.8456 191.2758 14.14620895146664 CZ-4B R/B 1 28415U 04035C 26237.08341329 .00007232 00000+0 23659-3 0 9993 2 28415 97.3337 269.4077 0032134 89.8886 270.6038 15.31493184205663 CZ-2C R/B 1 28480U 04046B 26237.18566815 .00000138 00000+0 66491-4 0 9997 2 28480 98.1861 141.6256 0139830 17.0324 343.5483 14.27045550132530 ARIANE 5 R/B 1 28499U 04049H 26237.30768727 .00000806 00000+0 94583-4 0 9995 2 28499 98.2777 52.2618 0084114 163.7533 196.6408 14.85529943170826 CZ-2D R/B 1 28738U 05024B 26237.02471486 .00078002 00000+0 45782-3 0 9996 2 28738 97.3444 260.2995 0005939 112.5411 247.6485 15.78033133166165 ALOS (DAICHI) 1 28931U 06002A 26236.35749967 .00000970 00000+0 16936-3 0 9993 2 28931 98.1380 191.7368 0002084 96.6034 263.5409 14.70173823 98115 H-2A R/B 1 28932U 06002B 26237.04611218 .00005507 00000+0 25888-3 0 9995 2 28932 98.2636 39.1861 0050222 29.0904 331.3110 15.18951156119974 RESURS-DK 1 1 29228U 06021A 26237.17385209 .00001830 00000+0 10819-3 0 9990 2 29228 69.9314 160.9422 0005739 232.2319 127.8328 15.13447916113015 CZ-4B R/B 1 29507U 06046C 26237.07013679 .00004013 00000+0 19649-3 0 9991 2 29507 97.5408 281.4648 0033387 45.4455 314.9496 15.18265742 85585 CZ-2C R/B 1 31114U 07010B 26237.24041825 .00000073 00000+0 52199-4 0 9993 2 31114 98.4134 342.2273 0059379 163.1695 197.1471 14.20290308 3639 COSMO-SKYMED 1 1 31598U 07023A 26237.30471770 .00001743 00000+0 15519-3 0 9995 2 31598 97.8851 69.7569 0001730 80.0037 280.1380 14.97379245 40138 COSMOS 2428 1 31792U 07029A 26237.16902080 .00000295 00000+0 18410-3 0 9998 2 31792 70.9409 209.6498 0009008 2.4619 357.6544 14.12968228987898 SL-16 R/B 1 31793U 07029B 26237.27112003 .00000149 00000+0 10172-3 0 9994 2 31793 70.9751 178.0042 0001710 266.8096 243.1138 14.14856272989213 KORONAS-FOTON 1 33504U 09003A 26237.12049160 .00009085 00000+0 17822-3 0 9994 2 33504 82.4280 100.2736 0008115 267.2983 92.7337 15.47131312971750 CZ-2C R/B 1 37731U 11030B 26236.85541963 .00000719 00000+0 96218-4 0 9992 2 37731 97.8713 191.0295 0052534 161.3711 220.3795 14.81589966814990 H-2A R/B 1 38341U 12025E 26237.18962617 .00001587 00000+0 14502-3 0 9994 2 38341 98.4904 218.0630 0044803 120.0072 240.5604 14.95972128773406 SHIJIAN-16 (SJ-16) 1 39358U 13057A 26237.27406325 .00001175 00000+0 11639-3 0 9999 2 39358 74.9701 225.8180 0014790 60.3347 299.9312 14.92740069696657 SL-4 R/B 1 39679U 14021B 26237.25179030 .00014645 00000+0 28847-3 0 9990 2 39679 51.6036 232.1022 0088710 0.1108 359.9882 15.43265959682271 ALOS-2 1 39766U 14029A 26237.32757100 .00001064 00000+0 14932-3 0 9994 2 39766 97.9228 333.5023 0001548 99.8345 260.3041 14.79466130661803 YAOGAN-29 1 41038U 15069A 26237.33143340 .00000597 00000+0 79837-4 0 9996 2 41038 98.0017 266.0654 0002413 121.5650 238.5799 14.83134026580875 ASTRO-H (HITOMI) 1 41337U 16012A 26237.01569184 .00002370 00000+0 13352-3 0 9990 2 41337 31.0007 349.5737 0009532 226.1056 133.8795 15.10783471577709 HXMT (HUIYAN) 1 42758U 17034A 26237.19026311 .00003997 00000+0 19655-3 0 9990 2 42758 43.0142 158.6596 0032347 224.8549 134.9685 15.18974657508153 SAOCOM 1A 1 43641U 18076A 26237.26684197 .00000076 00000+0 16153-4 0 9995 2 43641 97.8898 63.0194 0001446 85.6773 274.4605 14.82152520426339 H-2A R/B 1 43682U 18084L 26237.17025924 .00020621 00000+0 39809-3 0 9996 2 43682 98.8458 131.2446 0022367 151.2306 209.0179 15.47592654431785 SAOCOM 1B 1 46265U 20059A 26237.29810519 .00000318 00000+0 46490-4 0 9992 2 46265 97.8906 62.1491 0001515 83.6300 276.5085 14.82155317323726 CSS (TIANHE) 1 48274U 21035A 26237.15701201 .00016413 00000+0 20680-3 0 9996 2 48274 41.4680 263.3320 0001651 251.6308 108.4351 15.59244825303932 COSMOS 2550 1 48865U 21056A 26237.27452164 .00003781 00000+0 12067-3 0 9993 2 48865 67.1406 250.9170 0008382 269.2175 90.8019 15.33834047289312 CZ-2C R/B 1 52794U 22058K 26237.22871473 .00042162 00000+0 38542-3 0 9997 2 52794 50.1828 162.9322 0029445 196.7511 163.2494 15.66785337236452 CZ-2C R/B 1 54039U 22132E 26237.30083348 .00095995 00000+0 49571-3 0 9995 2 54039 97.2878 247.8703 0012868 158.6705 201.5103 15.80725814216835 GSLV R/B 1 54149U 22138AN 26237.15039801 .00001544 00000+0 12955-3 0 9994 2 54149 87.3769 109.8139 0018657 257.7291 102.1852 14.97525369209131 XRISM 1 57800U 23137A 26237.14349063 .00003869 00000+0 20849-3 0 9997 2 57800 31.0021 272.7531 0007562 299.1351 60.8531 15.12964193163314 ACS3 1 59588U 24077B 26237.17488097 .00017658 00000+0 12028-1 0 9999 2 59588 97.1995 140.8216 0113923 348.6090 11.2502 13.96795817117666 SPACEMOBILE-003 1 61045U 24163A 26236.37014583 -.00000664 00000+0 -15201-4 0 9992 2 61045 52.9756 355.9238 0003405 337.9884 22.0964 15.20657402108140 SPACEMOBILE-005 1 61046U 24163B 26236.68289525 .00010500 00000+0 48702-3 0 9996 2 61046 52.9821 354.4583 0007723 331.3900 28.6670 15.20583024108183 SPACEMOBILE-001 1 61047U 24163C 26235.76173874 .00001058 00000+0 62474-4 0 9995 2 61047 52.9765 358.3897 0005951 339.3867 20.6886 15.20543039108041 SPACEMOBILE-002 1 61048U 24163D 26235.35371282 .00019359 00000+0 88458-3 0 9996 2 61048 52.9733 0.3477 0004994 331.2003 28.8715 15.20589694107984 SPACEMOBILE-004 1 61049U 24163E 26236.32040583 .00015074 00000+0 69331-3 0 9991 2 61049 52.9661 355.6589 0006221 6.1152 353.9917 15.20540860108139 CZ-8A R/B 1 66004U 25231K 26237.08824147 .00000049 00000+0 76677-4 0 9992 2 66004 50.0027 106.1698 0116647 106.6880 254.6877 14.30174220 44806 SZ-21 MODULE 1 66515U 25246C 26237.26102558 .00062066 00000+0 28332-3 0 9991 2 66515 41.4696 235.1504 0008710 160.7980 199.3196 15.82780522 44660 SPACEMOBILE-006 1 67232U 25309A 26236.81376758 .00002479 00000+0 13275-3 0 9995 2 67232 52.9981 17.2302 0010613 353.8829 6.2033 15.18821357 37027 SPACEMOBILE-008 1 69589U 26139A 26237.24397034 .00000998 00000+0 72904-4 0 9991 2 69589 52.9959 309.0247 0004206 156.3752 203.7433 15.12920063 10433 SPACEMOBILE-009 1 69590U 26139B 26237.18267631 .00001031 00000+0 74962-4 0 9990 2 69590 52.9954 309.3452 0004583 153.9928 206.1294 15.12815025 10429 SPACEMOBILE-010 1 69591U 26139C 26237.19008782 .00001239 00000+0 87005-4 0 9994 2 69591 52.9959 309.3949 0004877 145.4374 214.6935 15.12666037 10437